This is the latest recevied weather packets stored in our database for station/object KC3SOZ. If no packets are shown the sender has not sent any weather packets the latest 10 day(s).
| Time | Temp. | Humidity | Pressure | Rain* | Wind** | Luminosity | Snow |
|---|---|---|---|---|---|---|---|
| 1778163851 | 12.22° C | 63% | 1013.6 hPa | 0 mm | - | 642 W/m² | - |
| 1778163548 | 12.22° C | 60% | 1013.4 hPa | 0 mm | - | 628 W/m² | - |
| 1778163244 | 12.22° C | 58% | 1013.6 hPa | 0 mm | - | 617 W/m² | - |
| 1778162941 | 11.67° C | 58% | 1013.8 hPa | 0 mm | - | 605 W/m² | - |
| 1778162638 | 11.67° C | 58% | 1013.7 hPa | 0 mm | - | 591 W/m² | - |
| 1778162336 | 11.67° C | 58% | 1013.6 hPa | 0 mm | - | 580 W/m² | - |
| 1778162032 | 11.67° C | 65% | 1013.7 hPa | 0 mm | - | 563 W/m² | - |
| 1778161730 | 12.22° C | 64% | 1013.9 hPa | 0 mm | - | 546 W/m² | - |
| 1778161425 | 11.67° C | 65% | 1013.8 hPa | 0 mm | - | 527 W/m² | - |
| 1778161122 | 11.67° C | 61% | 1013.9 hPa | 0 mm | - | 519 W/m² | - |
| 1778160817 | 11.11° C | 65% | 1013.9 hPa | 0 mm | - | 506 W/m² | - |
| 1778160516 | 11.11° C | 64% | 1014.1 hPa | 0 mm | - | 491 W/m² | - |
| 1778160212 | 11.11° C | 63% | 1014 hPa | 0 mm | - | 479 W/m² | - |
| 1778159909 | 11.11° C | 67% | 1014.1 hPa | 0 mm | - | 461 W/m² | - |
| 1778159606 | 10.56° C | 65% | 1014.1 hPa | 0 mm | - | 446 W/m² | - |
| 1778159303 | 11.11° C | 66% | 1014 hPa | 0 mm | - | 429 W/m² | - |
| 1778159000 | 11.11° C | 66% | 1013.9 hPa | 0 mm | - | 407 W/m² | - |
| 1778158699 | 11.11° C | 66% | 1014.1 hPa | 0 mm | - | 375 W/m² | - |
| 1778158396 | 10.56° C | 69% | 1014 hPa | 0 mm | - | 416 W/m² | - |
| 1778158093 | 10.56° C | 67% | 1013.8 hPa | 0 mm | - | 189 W/m² | - |
| 1778157789 | 10.56° C | 65% | 1014 hPa | 0 mm | - | 342 W/m² | - |
| 1778157488 | 10.56° C | 68% | 1014.2 hPa | 0 mm | - | 326 W/m² | - |
| 1778157185 | 10.56° C | 70% | 1013.8 hPa | 0 mm | - | 311 W/m² | - |
| 1778156881 | 10.56° C | 68% | 1013.7 hPa | 0 mm | - | 288 W/m² | - |
| 1778156576 | 10.56° C | 71% | 1013.8 hPa | 0 mm | - | 277 W/m² | - |
* Rain latest hour (hover to see other rain measurements)
** Current wind speed in m/s (hover to see current wind gust speed)